EDT,Max TemperatureF,Mean TemperatureF,Min TemperatureF,Max Dew PointF,MeanDew PointF,Min DewpointF,Max Humidity, Mean Humidity, Min Humidity, Max Sea Level PressureIn, Mean Sea Level PressureIn, Min Sea Level PressureIn, Max VisibilityMiles, Mean VisibilityMiles, Min VisibilityMiles, Max Wind SpeedMPH, Mean Wind SpeedMPH, Max Gust SpeedMPH,PrecipitationIn, CloudCover, Events, WindDirDegrees
2011-10-1,64,58,51,54,43,36,94,61,34,29.94,29.85,29.77,10,10,10,12,3,20,0.00,2,,307
2011-10-2,60,52,44,45,39,32,93,60,34,30.02,29.97,29.93,10,10,10,12,4,22,0.00,2,,283
2011-10-3,68,55,42,48,41,37,100,68,33,30.11,30.07,30.03,10,10,5,8,2,,0.00,1,,285
2011-10-4,71,58,44,54,47,45,100,68,38,30.24,30.19,30.15,10,10,10,9,1,,0.00,0,,329
2011-10-5,77,62,46,52,49,46,100,73,34,30.27,30.23,30.17,10,10,7,5,2,,0.00,0,,359
2011-10-6,77,64,50,54,50,46,100,68,34,30.34,30.29,30.24,10,10,10,13,3,17,0.00,0,,29
2011-10-7,77,62,46,52,47,41,100,65,29,30.43,30.39,30.35,10,10,10,12,3,16,0.00,0,,53
2011-10-8,77,64,50,52,49,43,100,65,33,30.49,30.44,30.39,10,10,10,12,5,17,0.00,0,,43
2011-10-9,78,66,55,57,54,50,100,70,44,30.41,30.38,30.30,10,10,10,14,8,22,0.00,1,,44
2011-10-10,75,68,62,61,54,45,73,60,50,30.30,30.19,30.10,10,10,10,12,8,18,0.00,1,,40
2011-10-11,68,64,60,64,60,55,100,87,64,30.08,30.02,29.93,10,9,4,14,7,21,0.16,8,Rain,34
2011-10-12,80,72,64,72,66,61,100,88,61,29.92,29.83,29.76,10,8,1,10,4,,0.30,6,Rain,83
2011-10-13,80,74,69,72,67,61,100,84,54,29.76,29.70,29.62,10,7,3,14,6,20,0.00,5,,184
2011-10-14,75,68,60,63,53,39,100,68,29,29.76,29.67,29.60,10,10,10,13,7,22,0.01,3,Rain,240
2011-10-15,77,62,48,52,44,32,100,61,19,29.97,29.92,29.86,10,10,10,10,2,22,0.00,0,,272
2011-10-16,78,61,44,48,43,36,100,65,24,30.15,30.08,30.00,10,10,10,13,1,17,0.00,0,,205
2011-10-17,86,70,53,52,48,41,88,55,20,29.99,29.92,29.84,10,10,10,14,5,18,0.00,0,,200
2011-10-18,82,68,55,64,58,55,100,74,39,29.89,29.84,29.76,10,10,7,13,4,,0.00,0,Rain,173
2011-10-19,69,64,60,70,64,61,100,99,94,29.64,29.45,29.32,10,7,1,13,5,17,0.53,7,Rain,50
2011-10-20,60,53,46,45,42,37,87,66,42,29.89,29.73,29.54,10,10,10,17,11,25,0.00,1,,218
2011-10-21,64,53,42,46,43,41,100,75,42,30.09,30.04,29.97,10,10,7,6,0,,0.00,0,,270
2011-10-22,68,54,41,50,45,41,100,79,43,30.15,30.10,30.07,10,10,7,8,1,,0.00,1,,21
2011-10-23,69,55,41,50,44,41,100,75,40,30.16,30.11,30.07,10,8,3,8,2,,0.00,0,,19
2011-10-24,71,56,42,54,48,43,100,80,41,30.14,30.08,30.03,10,9,3,6,1,,0.00,0,,316
2011-10-25,71,58,46,50,44,36,100,70,28,30.27,30.19,30.10,10,10,7,10,1,,0.00,0,,3
2011-10-26,77,60,44,54,48,45,100,73,36,30.18,30.07,29.94,10,9,4,16,3,22,0.00,0,,207
2011-10-27,78,64,51,54,51,50,100,69,36,29.93,29.86,29.77,10,10,10,18,6,25,0.00,0,,209
2011-10-28,62,53,44,54,42,34,93,66,47,30.13,30.06,29.90,10,9,2,15,7,22,0.00,7,,30
2011-10-29,53,48,42,45,42,32,100,87,51,30.04,29.95,29.89,10,8,2,12,6,21,0.23,6,Rain,329
2011-10-30,59,46,32,36,33,30,100,71,34,30.32,30.25,30.14,10,10,5,8,1,,0.00,0,,40
2011-10-31,57,45,33,50,39,32,100,79,48,30.36,30.28,30.18,10,8,1,7,3,,0.91,3,Rain,53